Weather History for Beckley, WV

Change the Weather History Date:

Tuesday, February 12, 2013

  Actual Average Record
Temperature  
Mean Temperature 41 °F 34 °F  
Max Temperature 50 °F 42 °F 72 °F (1932)
Min Temperature 32 °F 25 °F -8 °F (1936)
Degree Days  
Heating Degree Days 24 31  
Month to date heating degree days 379 386  
Since 1 July heating degree days 3295 3530  
Cooling Degree Days 0 0  
Month to date cooling degree days 0 0  
Year to date cooling degree days 0 0  
Moisture  
Dew Point 20 °F    
Average Humidity 44    
Maximum Humidity 64    
Minimum Humidity 24    
Precipitation  
Precipitation 0.00 in 0.10 in 1.50 in (1923)
Month to date precipitation 0.35 1.16  
Year to date precipitation 5.12 3.97  
Snow  
Snow 0.00 in - - ()
Month to date snowfall 6.3  
Since 1 September snowfall 48.7  
Snow Depth 0.00 in    
Sea Level Pressure  
Sea Level Pressure 30.05 in    
Wind  
Wind Speed 7 mph (WNW)    
Max Wind Speed 18 mph    
Max Gust Speed 23 mph    
Visibility 10 miles    
Events      
T = Trace of Precipitation, MM = Missing Value Source: NWS Daily Summary

Daily Weather History Graph

Daily Weather History Graph

Search for Another Location

Airport:

Trip Planner

Search our weather history database for the weather conditions in past years. The results will help you decide how hot, cold, wet, or windy it might be!

Date:

Astronomy

Feb. 12, 2013 Rise Set
Actual Time 7:17 AM EST 6:00 PM EST
Civil Twilight 6:50 AM EST 6:27 PM EST
Nautical Twilight 6:19 AM EST 6:58 PM EST
Astronomical Twilight 5:49 AM EST 7:29 PM EST
Moon 8:17 AM EST (2/12) 8:55 PM EST (2/12)
Length of Visible Light 11h 37m
Length of Day
10h 43m
Waxing Crescent, 7% of the Moon is Illuminated
Feb 12
Waxing Crescent
Feb 17
First Quarter
Feb 25
Full
Mar 4
Last Quarter
Mar 11
New

Hourly Weather History & Observations

Time (EST) Temp. Windchill Dew Point Humidity Pressure Visibility Wind Dir Wind Speed Gust Speed Precip Events Conditions
12:51 AM 37.9 °F 29.6 °F 21.0 °F 51% 30.03 in 10.0 mi West 13.8 mph 21.9 mph N/A   Clear
1:51 AM 36.0 °F 29.6 °F 21.9 °F 57% 30.04 in 10.0 mi WNW 8.1 mph - N/A   Clear
2:51 AM 36.0 °F 27.1 °F 21.9 °F 57% 30.05 in 10.0 mi WNW 13.8 mph 21.9 mph N/A   Clear
3:51 AM 35.1 °F 27.9 °F 21.9 °F 59% 30.06 in 10.0 mi WNW 9.2 mph - N/A   Clear
4:51 AM 34.0 °F 26.6 °F 21.0 °F 59% 30.07 in 10.0 mi WNW 9.2 mph - N/A   Clear
5:51 AM 33.1 °F 26.9 °F 21.9 °F 64% 30.10 in 10.0 mi West 6.9 mph - N/A   Clear
6:51 AM 32.0 °F 25.6 °F 21.9 °F 66% 30.10 in 10.0 mi West 6.9 mph - N/A   Clear
7:51 AM 33.1 °F 27.7 °F 23.0 °F 66% 30.13 in 10.0 mi WNW 5.8 mph - N/A   Clear
8:51 AM 35.1 °F 27.9 °F 23.0 °F 61% 30.13 in 10.0 mi WNW 9.2 mph - N/A   Clear
9:51 AM 37.9 °F 29.6 °F 21.9 °F 53% 30.13 in 10.0 mi WNW 13.8 mph - N/A   Clear
10:51 AM 41.0 °F 33.9 °F 19.9 °F 43% 30.12 in 10.0 mi West 12.7 mph - N/A   Clear
11:51 AM 44.1 °F 40.1 °F 19.0 °F 37% 30.09 in 10.0 mi NW 6.9 mph - N/A   Clear
12:51 PM 46.9 °F - 17.1 °F 30% 30.01 in 10.0 mi NNW 8.1 mph - N/A   Clear
1:51 PM 48.9 °F - 16.0 °F 27% 30.03 in 10.0 mi WNW 11.5 mph 18.4 mph N/A   Clear
2:51 PM 48.0 °F - 15.1 °F 27% 30.03 in 10.0 mi NW 10.4 mph - N/A   Clear
3:51 PM 48.0 °F - 14.0 °F 26% 30.02 in 10.0 mi WNW 8.1 mph - N/A   Clear
4:51 PM 46.0 °F 43.1 °F 17.1 °F 31% 30.05 in 10.0 mi WNW 5.8 mph - N/A   Clear
5:51 PM 44.1 °F 41.5 °F 17.1 °F 34% 30.03 in 10.0 mi NW 4.6 mph - N/A   Clear
6:51 PM 39.9 °F - 19.0 °F 43% 30.00 in 10.0 mi Calm Calm - N/A   Clear
7:51 PM 39.0 °F - 21.0 °F 49% 30.00 in 10.0 mi Calm Calm - N/A   Clear
8:51 PM 39.9 °F 37.8 °F 19.9 °F 45% 30.01 in 10.0 mi SSW 3.5 mph - N/A   Clear
9:51 PM 39.0 °F - 21.0 °F 49% 29.99 in 10.0 mi Calm Calm - N/A   Partly Cloudy
10:51 PM 36.0 °F - 19.9 °F 52% 29.96 in 10.0 mi Calm Calm - N/A   Clear
11:51 PM 35.1 °F - 19.9 °F 54% 29.95 in 10.0 mi Calm Calm - N/A   Clear